Accueil
METAR-TAF:

METAR-TAF

Aéroports :

Nenana, Alaska, États-Unis

latitude: 64-33N, longitude: 149-05W, altitude: 110 m

Observation

Le bulletin a été fait il y a 24 minutes, à 19:33 UTC
Vent calme
Température -6°C
Humidité 100%
Pression 999 hPa
Visibilité: 4.0 km
Ciel couvert à une hauteur de 600 ft
brume

METAR: PANN 211933Z AUTO 00000KT 2 1/2SM BR OVC006 M06/M06 A2950 RMK AO2 I1000 T10561061 TSNO

Heure: 10:57 (19:57 UTC)


TAF: absent

Observations et prévisions météorologiques de plus de 4000 aéroports (messages METAR et TAF).

Les stations disponibles sont représentées par des disques jaunes et rouges sur la carte.

Passer la souris dessus pour voir le nom de la station.

Cliquer dessus pour voir les observations et prévisions météorologiques.

Pour changer de carte: cliquez sur les boutons verts avec une croix noire pour zoomer, sur le bouton vert avec un tiret pour effectuer un zoom arrière, ou sur les flèches vertes pour les cartes adjacentes.


METAR-TAF: